St. Cloud, MN

11:10 PM CST on November 14, 2019 (GMT -0600)
Saint Cloud Regional

Weather History for KSTC - May, 2019

Change the Weather History Date:

Sunday, May 26, 2019

  Actual Average Record
Temperature  
Mean Temperature 56 °F 59 °F  
Max Temperature 73 °F 72 °F 95 °F (2018)
Min Temperature 39 °F 47 °F 30 °F (1992)
Degree Days  
Heating Degree Days 8 7  
Month to date heating degree days 382 258  
Since 1 July heating degree days 9180 8425  
Cooling Degree Days 0 1  
Month to date cooling degree days 0 18  
Year to date cooling degree days 0 20  
Growing Degree Days 6 (Base 50)    
Moisture  
Dew Point 44 °F    
Average Humidity 77    
Maximum Humidity 100    
Minimum Humidity 35    
Precipitation  
Precipitation 0.00 in 0.09 in 2.13 in (1906)
Month to date precipitation 5.77 2.44  
Year to date precipitation 13.12 7.80  
Snow  
Snow 0.00 in 0.00 in T in (1951)
Month to date snowfall 0.4 0.0  
Since 1 July snowfall 68.9 45.7  
Snow Depth 0.00 in    
Sea Level Pressure  
Sea Level Pressure 30.09 in    
Wind  
Wind Speed 1 mph ()    
Max Wind Speed 10 mph    
Max Gust Speed 15 mph    
Visibility 6.8 miles    
Events Fog    
T = Trace of Precipitation, MM = Missing Value Source: Averaged Metar Reports

Daily Weather History Graph

Daily Weather History Graph

Search for Another Location

Airport or City:

Astronomy

May. 26, 2019 Rise Set
Actual Time 5:34 AM CDT 8:52 PM CDT
Civil Twilight 4:58 AM CDT 9:28 PM CDT
Nautical Twilight 4:11 AM CDT 10:15 PM CDT
Astronomical Twilight 3:13 AM CDT 11:14 PM CDT
Moon 2:18 AM CDT (5/26) 12:40 PM CDT (5/26)
Length of Visible Light 16h 29m
Length of Day
15h 17m
Waning Gibbous, 50% of the Moon is Illuminated
May 26
Waning Gibbous
Jun 3
New
Jun 10
First Quarter
Jun 17
Full
Jun 25
Last Quarter

Hourly Weather History & Observations

Time (CDT) Temp. Windchill Dew Point Humidity Pressure Visibility Wind Dir Wind Speed Gust Speed Precip Events Conditions
12:53 AM 46.9 °F - 44.1 °F 90% 30.06 in 10.0 mi NNW 3.5 mph - N/A   Clear
1:53 AM 45.0 °F - 43.0 °F 93% 30.07 in 10.0 mi Calm Calm - N/A   Clear
2:53 AM 42.1 °F 40.2 °F 41.0 °F 96% 30.08 in 4.0 mi NW 3.5 mph - N/A   Clear
3:09 AM 42.1 °F - 41.0 °F 96% 30.05 in 1.8 mi Calm Calm - N/A   Clear
3:26 AM 42.1 °F - 41.0 °F 96% 30.05 in 3.0 mi Calm Calm - N/A   Clear
3:53 AM 42.1 °F - 41.0 °F 96% 30.09 in 7.0 mi Calm Calm - N/A   Clear
4:02 AM 41.0 °F - 41.0 °F 100% 30.05 in 1.8 mi Calm Calm - N/A   Clear
4:15 AM 41.0 °F - 41.0 °F 100% 30.06 in 3.0 mi Calm Calm - N/A   Clear
4:19 AM 41.0 °F - 39.9 °F 96% 30.06 in 1.8 mi Calm Calm - N/A   Clear
4:29 AM 41.0 °F - 39.9 °F 96% 30.06 in 0.5 mi Calm Calm - N/A Fog Fog
4:40 AM 41.0 °F - 39.9 °F 96% 30.06 in 2.5 mi Calm Calm - N/A   Clear
4:53 AM 41.0 °F - 39.9 °F 96% 30.10 in 5.0 mi Calm Calm - N/A   Clear
5:30 AM 41.0 °F - 39.9 °F 96% 30.08 in 0.8 mi Calm Calm - N/A   Clear
5:53 AM 41.0 °F - 39.9 °F 96% 30.12 in 1.0 mi Calm Calm - N/A   Clear
6:04 AM 39.9 °F - 39.9 °F 100% 30.09 in 0.8 mi Calm Calm - N/A   Clear
6:09 AM 41.0 °F - 39.9 °F 96% 30.09 in 2.0 mi Calm Calm - N/A   Clear
6:17 AM 41.0 °F - 41.0 °F 100% 30.09 in 5.0 mi Calm Calm - N/A   Clear
6:53 AM 45.0 °F - 44.1 °F 97% 30.14 in 7.0 mi Calm Calm - N/A   Clear
7:53 AM 51.1 °F - 46.9 °F 86% 30.14 in 10.0 mi Calm Calm - N/A   Clear
8:53 AM 57.9 °F - 48.0 °F 70% 30.14 in 10.0 mi Calm Calm - N/A   Clear
9:53 AM 60.1 °F - 46.9 °F 62% 30.15 in 10.0 mi Calm Calm - N/A   Clear
10:53 AM 64.0 °F - 46.0 °F 52% 30.14 in 10.0 mi Variable 5.8 mph - N/A   Clear
11:53 AM 66.9 °F - 45.0 °F 45% 30.15 in 10.0 mi Variable 3.5 mph - N/A   Clear
12:53 PM 66.0 °F - 45.0 °F 47% 30.13 in 10.0 mi Variable 3.5 mph - N/A   Clear
1:53 PM 69.1 °F - 45.0 °F 42% 30.13 in 10.0 mi Variable 3.5 mph - N/A   Clear
2:53 PM 71.1 °F - 46.0 °F 41% 30.11 in 10.0 mi Variable 3.5 mph - N/A   Clear
3:53 PM 71.1 °F - 44.1 °F 38% 30.09 in 10.0 mi Variable 5.8 mph - N/A   Clear
4:53 PM 72.0 °F - 45.0 °F 38% 30.09 in 10.0 mi ENE 4.6 mph - N/A   Clear
5:53 PM 73.0 °F - 44.1 °F 35% 30.08 in 10.0 mi Variable 4.6 mph - N/A   Clear
6:53 PM 72.0 °F - 44.1 °F 37% 30.05 in 10.0 mi Calm Calm - N/A   Clear
7:53 PM 69.1 °F - 46.9 °F 45% 30.04 in 10.0 mi South 3.5 mph - N/A   Clear
8:53 PM 64.0 °F - 51.1 °F 63% 30.04 in 10.0 mi Calm Calm - N/A   Clear
9:53 PM 59.0 °F - 53.1 °F 81% 30.05 in 10.0 mi Calm Calm - N/A   Clear
10:53 PM 57.0 °F - 52.0 °F 83% 30.05 in 10.0 mi Calm Calm - N/A   Partly Cloudy
11:53 PM 55.0 °F - 52.0 °F 89% 30.04 in 10.0 mi Calm Calm - N/A   Clear